TimeCST,TemperatureF,Dew PointF,Humidity,Sea Level PressureIn,VisibilityMPH,Wind Direction,Wind SpeedMPH,Gust SpeedMPH,PrecipitationIn,Events,Conditions,WindDirDegrees,DateUTC
12:52 AM,21.9,10.9,63,30.34,10.0,NNE,5.8,-,N/A,,Mostly Cloudy,30,2013-01-22 06:52:00
1:52 AM,21.9,10.9,63,30.34,10.0,ENE,3.5,-,N/A,,Clear,70,2013-01-22 07:52:00
2:52 AM,21.9,12.9,68,30.33,10.0,ESE,3.5,-,N/A,,Mostly Cloudy,120,2013-01-22 08:52:00
3:52 AM,21.9,10.9,63,30.34,10.0,NE,5.8,-,N/A,,Partly Cloudy,40,2013-01-22 09:52:00
4:52 AM,21.9,12.0,66,30.35,10.0,NNE,5.8,-,N/A,,Clear,20,2013-01-22 10:52:00
5:52 AM,21.9,12.9,68,30.35,10.0,NE,5.8,-,N/A,,Clear,50,2013-01-22 11:52:00
6:52 AM,19.9,10.0,65,30.37,10.0,East,5.8,-,N/A,,Clear,80,2013-01-22 12:52:00
7:52 AM,19.9,10.0,65,30.37,10.0,East,4.6,-,N/A,,Clear,90,2013-01-22 13:52:00
8:52 AM,24.1,10.9,57,30.37,10.0,ESE,9.2,-,N/A,,Clear,120,2013-01-22 14:52:00
9:52 AM,27.0,12.0,53,30.37,10.0,SE,9.2,-,N/A,,Clear,140,2013-01-22 15:52:00
10:52 AM,28.0,12.0,51,30.39,10.0,ESE,8.1,-,N/A,,Overcast,120,2013-01-22 16:52:00
11:52 AM,28.9,12.0,49,30.37,10.0,East,9.2,-,N/A,,Overcast,90,2013-01-22 17:52:00
12:52 PM,30.0,12.9,49,30.34,10.0,ESE,9.2,-,N/A,,Overcast,120,2013-01-22 18:52:00
1:52 PM,32.0,14.0,48,30.31,10.0,SE,10.4,-,N/A,,Overcast,130,2013-01-22 19:52:00
2:52 PM,33.1,15.1,48,30.29,10.0,SSE,8.1,-,N/A,,Overcast,150,2013-01-22 20:52:00
3:52 PM,34.0,15.1,46,30.28,10.0,SSE,10.4,-,N/A,,Overcast,150,2013-01-22 21:52:00
4:52 PM,33.1,16.0,50,30.27,10.0,SE,9.2,-,N/A,,Mostly Cloudy,140,2013-01-22 22:52:00
5:52 PM,28.0,16.0,61,30.28,10.0,SE,6.9,-,N/A,,Partly Cloudy,140,2013-01-22 23:52:00
6:52 PM,27.0,16.0,63,30.27,10.0,SE,8.1,-,N/A,,Clear,130,2013-01-23 00:52:00
7:52 PM,26.1,15.1,63,30.28,10.0,ESE,5.8,-,N/A,,Clear,120,2013-01-23 01:52:00
8:52 PM,27.0,16.0,63,30.27,10.0,SE,9.2,-,N/A,,Clear,140,2013-01-23 02:52:00
9:52 PM,27.0,16.0,63,30.28,10.0,SE,6.9,-,N/A,,Clear,130,2013-01-23 03:52:00
10:52 PM,26.1,17.1,69,30.29,10.0,SSE,4.6,-,N/A,,Clear,160,2013-01-23 04:52:00
11:52 PM,26.1,17.1,69,30.29,10.0,SSE,9.2,-,N/A,,Clear,160,2013-01-23 05:52:00